Theta_e
353 354 353 353 353 352 352 352 351 351 351 351 351 351 351 352 351 351 351 351 351 351 351 351 351 350 348 349 349 349 349 350 348 350 350 350 351 352 351 348 343 344 345 346 347 346 347 348 348 347 347 347 345 343 342 341 344 345 345 345 344 343 341 340 340 340 341 341 341 341 341 341 342 342 341 341 341 341 340 339 339 340 341 342 343
352 353 353 353 354 354 353 352 350 351 351 351 351 351 351 351 351 350 351 352 351 351 350 349 349 350 350 349 347 347 348 348 348 349 350 349 350 350 350 350 347 343 344 345 345 346 346 347 348 347 346 346 345 345 345 342 342 343 343 343 344 344 343 342 341 340 340 340 340 341 341 341 340 341 341 342 342 341 341 340 340 339 340 341 342
352 353 354 355 356 355 354 353 351 351 351 351 350 351 351 350 350 349 349 349 348 347 345 344 346 348 348 349 348 348 348 347 348 349 348 347 349 350 349 350 349 345 343 344 345 345 346 347 348 348 347 346 345 345 346 344 343 343 342 341 343 345 345 344 343 342 341 340 340 340 341 341 341 341 341 341 341 340 341 340 340 340 339 339 339
353 353 354 355 355 354 353 353 351 351 351 351 350 351 351 350 349 348 346 345 345 344 344 344 344 343 344 346 347 348 348 347 347 348 348 348 348 350 349 349 350 347 344 343 344 344 346 347 348 347 347 347 346 346 346 346 345 344 344 343 343 344 345 345 345 344 344 343 342 341 340 341 341 341 341 341 340 340 340 340 340 340 339 339 338
355 354 355 354 354 354 353 353 352 351 350 350 351 351 351 349 348 347 346 345 345 344 343 343 342 340 341 344 346 347 347 347 348 348 349 348 347 347 347 347 349 348 346 344 344 344 345 346 348 347 347 347 347 346 346 346 346 345 345 344 344 343 344 345 345 345 345 345 344 343 342 341 341 341 341 341 341 340 340 340 340 339 339 339 339
354 355 356 355 354 355 354 353 352 350 350 350 351 350 348 348 347 347 346 344 345 344 340 340 340 339 341 342 344 345 347 347 348 348 349 348 347 346 345 346 348 348 347 347 346 345 345 346 348 348 347 347 347 347 346 346 346 345 345 345 345 344 344 344 345 344 344 344 345 345 344 343 342 342 341 341 341 340 340 340 340 340 340 340 339
352 354 356 355 354 355 355 354 352 351 351 351 350 347 346 347 347 346 345 343 341 341 338 339 340 340 342 343 344 345 347 349 349 349 348 347 347 346 346 348 350 348 347 348 347 345 345 346 348 349 348 348 348 347 347 346 346 346 346 346 345 345 344 344 344 344 344 345 345 345 345 345 344 343 343 342 341 341 340 340 340 340 340 340 340
352 352 353 354 355 355 355 354 353 352 352 349 347 345 347 348 343 341 343 339 336 337 339 340 339 341 343 344 345 346 347 349 349 348 347 347 347 346 347 350 350 349 349 348 347 345 345 346 347 348 347 348 348 348 347 347 347 346 346 346 346 346 345 345 345 344 344 345 344 344 345 344 344 344 344 344 343 343 342 341 340 340 339 339 339
352 352 353 353 355 356 356 355 353 354 351 346 345 348 349 346 340 338 339 337 336 340 343 342 341 342 344 344 346 346 347 346 346 346 345 346 347 347 348 349 347 347 349 348 347 347 346 346 347 347 347 348 348 348 348 347 347 347 347 347 347 347 346 346 346 345 345 345 345 345 345 344 344 344 344 344 345 345 344 343 342 341 340 340 339
352 352 355 355 355 356 355 355 354 354 349 343 345 348 347 343 338 338 338 339 342 344 345 344 342 342 345 345 346 346 345 345 345 345 344 344 346 347 347 347 347 347 347 348 347 347 346 346 348 348 348 348 348 348 348 347 347 347 347 348 348 347 347 346 346 346 345 346 346 345 344 344 344 344 344 344 344 345 345 344 343 343 342 342 341
353 353 355 355 356 356 356 355 355 352 346 344 346 345 343 340 338 339 340 342 344 344 344 345 343 342 343 343 345 345 344 344 345 343 344 345 346 347 346 346 347 346 346 346 345 345 344 345 347 347 347 347 347 347 348 348 348 348 348 348 348 347 347 347 346 346 345 346 346 345 345 344 344 344 344 344 344 345 345 344 344 343 343 343 342
355 354 354 355 357 357 356 357 354 348 343 345 345 342 341 337 337 341 343 344 343 343 344 344 343 342 343 344 346 346 344 344 344 344 344 345 345 345 345 346 345 344 344 344 344 343 343 344 344 346 346 346 346 346 347 347 347 347 348 348 348 347 347 348 347 347 346 346 346 346 346 346 345 345 345 344 344 345 346 345 344 343 343 343 343
356 355 353 356 358 358 357 355 351 346 344 346 343 340 340 337 338 343 344 344 344 344 345 344 343 345 345 344 345 346 346 344 343 344 344 343 343 342 343 344 343 342 342 342 344 343 342 342 343 343 344 344 344 344 345 345 345 346 347 346 347 348 347 348 348 348 347 347 347 347 347 347 346 346 346 345 345 345 345 345 345 344 343 343 343
357 356 355 357 359 358 357 353 348 346 345 346 344 342 342 339 338 341 343 344 344 345 345 342 343 345 343 344 347 345 345 344 342 343 344 342 342 342 342 342 341 341 341 341 343 344 343 343 343 343 343 343 343 344 345 345 343 342 342 343 344 345 345 346 347 347 347 347 347 347 347 346 346 346 346 346 346 346 345 345 345 345 345 344 344
358 356 356 358 359 358 355 350 348 347 346 345 345 344 342 338 337 341 344 343 342 345 345 341 339 341 343 348 350 348 347 345 342 342 342 341 341 341 341 340 340 340 340 341 342 343 343 342 342 342 343 343 342 343 343 342 340 339 340 340 340 342 344 344 345 346 346 346 346 346 346 346 346 346 346 346 346 346 346 346 346 346 346 345 345
358 357 356 357 358 357 353 349 348 348 346 344 345 345 341 336 337 341 342 340 341 344 344 341 335 337 348 351 349 352 354 347 342 340 339 339 340 340 340 338 337 338 338 339 340 341 340 338 340 342 342 342 342 341 340 339 338 337 334 332 332 333 336 339 342 343 342 342 343 344 344 345 345 345 345 346 346 346 347 346 346 346 346 346 346
359 358 357 358 358 356 353 349 349 348 345 343 345 345 341 336 337 339 337 338 340 342 344 342 335 335 345 349 349 355 354 346 344 342 338 337 337 336 336 333 332 334 335 336 338 339 337 335 338 340 340 341 342 341 339 336 333 328 321 321 322 322 324 327 331 333 333 333 335 337 339 340 342 343 343 344 345 345 345 346 346 346 346 346 346
360 358 358 359 358 355 352 349 349 347 344 344 345 344 339 335 336 339 339 337 337 341 343 341 339 338 339 343 345 348 347 346 349 348 340 336 336 334 334 331 329 331 332 333 336 336 334 334 336 336 335 337 339 339 338 334 325 318 316 317 317 317 317 318 319 320 321 322 323 325 327 330 332 335 337 339 341 342 343 344 344 345 346 346 346
359 358 358 358 356 353 351 349 349 346 345 346 345 342 338 337 337 339 340 337 335 340 342 340 340 340 339 340 339 338 340 343 347 350 348 343 337 333 333 332 331 330 331 333 335 334 333 333 333 332 331 331 333 333 333 330 322 317 318 318 317 317 316 316 316 316 315 316 316 317 318 319 321 324 326 329 332 335 337 339 341 341 342 343 344
358 358 356 355 353 352 351 350 349 347 346 346 344 340 338 339 339 339 338 336 336 340 340 339 340 339 338 340 339 339 339 339 339 342 348 350 344 337 334 332 332 331 332 332 332 332 332 331 330 331 330 328 329 329 330 330 327 324 324 322 322 322 320 319 318 317 317 316 315 315 315 315 316 317 318 319 321 324 326 329 332 335 337 338 340
357 356 355 354 352 351 351 350 350 348 346 345 341 340 340 340 340 340 337 335 337 339 337 338 340 339 337 338 339 339 337 337 336 336 341 347 349 346 338 334 334 332 332 332 331 330 330 329 328 328 330 329 329 329 329 330 330 329 328 327 326 326 326 324 321 319 319 318 318 317 315 315 315 315 316 316 317 317 319 320 322 325 327 330 334
357 355 354 354 352 350 350 349 349 348 346 344 339 340 341 340 340 337 334 334 336 338 338 338 339 339 337 335 337 339 336 337 337 336 337 338 344 345 337 336 337 333 331 332 331 330 329 328 328 327 328 329 329 330 330 330 330 330 330 329 328 328 329 327 324 322 320 320 320 319 317 316 315 315 315 315 315 316 316 317 317 318 319 321 324
356 355 353 353 352 351 350 349 348 347 345 341 339 340 339 338 338 336 336 337 336 336 339 338 337 337 335 333 335 337 337 338 337 336 336 337 342 343 336 336 337 334 333 333 331 331 329 329 329 328 327 328 329 330 329 330 330 330 330 329 327 328 329 328 325 325 324 323 322 321 320 318 316 315 315 315 315 315 315 316 316 317 317 317 318
355 354 352 352 351 350 350 348 347 345 342 339 339 341 338 336 338 339 341 340 336 336 338 336 335 335 334 335 337 336 334 335 335 335 335 335 338 340 337 336 337 337 335 333 333 333 332 332 331 330 328 327 328 330 329 329 330 330 329 328 327 329 329 327 326 327 327 326 325 326 325 323 321 319 316 315 315 315 315 316 316 316 316 316 316
354 353 352 352 350 351 350 347 345 342 339 340 342 341 337 336 339 341 341 340 339 340 339 337 337 336 336 339 338 336 335 334 334 333 335 334 334 336 337 337 337 337 336 334 334 334 334 333 333 332 330 328 327 328 329 329 329 329 328 327 327 329 329 328 328 329 329 328 328 329 329 328 327 324 321 319 318 316 315 315 316 316 316 316 317
354 353 353 351 350 349 347 345 344 341 339 341 342 340 337 338 339 340 339 339 340 340 338 338 339 337 339 339 338 337 336 335 334 333 334 336 335 336 339 339 337 336 336 336 336 335 334 333 333 333 332 330 329 328 328 328 328 328 328 328 328 328 328 329 329 330 330 330 330 330 330 329 329 328 326 324 323 321 319 317 316 315 316 316 317
354 353 352 351 350 348 345 344 343 340 338 340 341 341 340 340 339 337 337 338 339 339 337 338 340 339 339 338 337 337 337 336 335 334 335 336 336 335 338 341 342 340 337 337 336 335 335 334 333 333 333 332 331 329 328 328 328 329 329 329 329 329 330 330 330 330 331 331 331 331 330 330 330 330 329 328 327 326 324 322 319 316 316 316 316
354 353 351 350 350 348 345 343 341 340 339 338 341 342 341 342 340 337 338 338 338 340 339 338 339 340 338 337 337 335 335 337 337 336 337 336 337 336 336 338 341 344 344 342 340 336 334 335 335 334 333 333 332 330 330 329 329 330 330 330 330 330 331 331 330 331 331 331 331 331 332 331 331 331 330 330 330 329 328 326 323 319 316 316 316
352 351 350 349 350 348 345 343 341 342 340 334 338 342 341 341 340 338 339 340 339 340 340 338 338 340 339 338 337 332 333 336 336 337 337 336 336 336 336 335 337 343 346 347 344 338 334 335 334 333 334 333 333 331 330 331 330 330 330 330 330 331 331 331 331 331 330 331 331 332 332 332 332 331 331 331 331 330 329 326 324 322 319 316 316
350 350 349 348 348 348 346 343 340 343 341 335 338 342 340 340 341 338 339 341 340 339 339 338 339 339 339 338 337 335 335 335 335 336 336 336 336 334 335 335 336 339 340 343 344 338 334 335 333 334 334 333 332 331 331 331 331 331 331 331 331 331 331 331 331 331 331 331 332 332 332 332 332 332 332 332 331 330 330 327 323 321 320 318 316
349 349 349 348 348 348 347 344 340 341 342 337 340 342 338 338 340 339 339 340 340 340 339 338 339 339 339 338 338 337 338 337 337 337 337 337 337 336 336 336 337 338 337 339 341 339 336 336 336 335 335 334 333 333 333 333 332 333 332 332 332 332 332 332 332 332 332 331 331 332 332 333 333 333 333 333 332 330 330 329 325 321 319 318 317
349 349 349 349 348 347 347 345 341 341 342 340 340 342 339 337 338 338 339 340 340 341 339 338 339 339 338 339 339 338 338 338 338 338 338 337 337 337 337 337 338 338 338 338 339 339 337 337 338 338 337 336 335 334 334 334 333 333 333 332 332 332 332 332 332 332 331 331 332 332 333 334 334 334 333 333 332 331 330 329 328 325 322 319 318
350 349 349 349 348 347 347 345 342 342 343 342 341 342 341 339 338 338 338 339 339 340 339 338 339 338 337 338 338 337 337 337 337 337 337 337 337 337 337 337 338 338 339 339 339 339 339 339 339 338 338 338 337 335 335 335 334 334 333 333 333 332 333 333 332 332 332 331 332 332 333 334 334 334 333 332 332 331 330 329 328 328 326 324 321
351 350 349 349 348 347 347 346 344 342 343 343 342 341 342 342 339 338 337 338 338 339 339 339 339 337 337 338 338 337 337 338 338 338 338 337 337 338 338 338 338 338 338 339 340 340 339 340 338 337 338 338 337 336 335 335 334 334 334 334 333 333 333 333 333 332 332 331 331 331 331 332 333 333 332 332 331 331 330 329 328 327 326 326 325
352 351 350 349 348 347 347 346 344 342 343 344 342 340 341 342 341 339 338 338 339 339 339 339 339 339 339 339 338 338 338 338 338 338 337 338 338 338 338 338 338 338 338 338 339 339 339 338 338 337 338 338 337 337 336 336 335 335 334 334 334 334 334 333 333 333 332 332 331 331 330 330 331 331 331 330 330 329 329 329 328 327 326 326 326
354 352 351 350 349 347 347 346 345 343 342 343 343 340 340 342 342 340 339 339 340 340 339 339 339 339 340 339 338 338 338 338 338 337 338 338 338 338 338 337 337 337 337 337 337 337 338 338 338 338 338 338 338 338 337 337 336 335 334 334 334 334 334 333 333 333 333 332 331 331 331 330 330 330 329 329 329 328 328 328 328 328 327 327 327
355 354 352 351 349 348 347 346 345 343 342 343 344 342 340 341 342 341 340 340 340 340 339 338 338 339 339 339 338 338 338 338 338 338 338 338 338 338 338 337 337 337 336 336 336 336 338 338 338 338 337 336 336 336 336 336 336 335 334 334 334 333 331 331 331 332 332 332 332 332 331 331 330 330 329 330 329 329 329 328 328 328 328 327 327
357 356 353 351 350 348 347 346 345 344 343 343 344 344 342 341 341 341 340 340 339 340 340 339 339 339 339 338 338 338 338 338 338 339 339 338 337 337 337 337 337 337 336 336 336 337 338 337 336 336 335 335 334 333 333 334 334 334 334 334 333 330 329 329 329 330 331 331 332 331 330 330 329 329 328 328 329 329 329 329 328 328 328 328 328
358 357 355 352 351 349 348 347 345 344 344 343 344 344 343 342 341 341 341 340 339 340 341 341 341 340 338 338 339 338 339 339 339 338 338 338 337 337 337 337 337 337 337 337 338 337 337 336 335 336 335 334 334 334 333 333 333 334 334 334 332 330 329 329 329 330 330 331 330 330 329 328 328 327 327 327 328 328 328 329 328 328 328 328 328
359 358 356 353 351 350 348 348 346 345 345 344 344 344 342 341 342 343 342 341 340 340 341 341 341 340 339 339 339 338 339 339 338 338 337 337 338 337 337 337 337 337 338 338 338 337 336 336 336 335 335 334 334 334 333 332 333 333 333 333 333 331 331 331 330 330 330 330 330 329 327 327 328 327 328 328 328 329 328 328 328 327 327 328 328
360 359 357 355 353 351 349 348 347 345 345 345 344 344 340 339 342 344 342 341 340 339 339 340 341 340 340 339 339 338 338 338 337 337 337 337 337 337 337 337 336 337 338 338 336 335 335 335 335 335 335 334 334 333 332 332 332 332 332 332 332 332 332 332 330 330 329 329 329 328 328 328 328 328 328 328 328 328 327 326 325 324 324 325 325
361 359 358 356 354 351 350 349 347 346 345 345 344 344 340 334 338 343 342 341 340 339 340 341 340 340 340 339 339 339 338 338 338 337 337 337 337 336 336 337 337 338 338 337 335 335 335 335 334 334 334 334 333 333 332 331 331 331 331 331 331 331 331 331 330 329 328 328 328 328 327 326 326 327 328 327 327 326 324 323 322 321 322 322 322
361 360 359 357 355 353 351 349 348 346 345 345 344 344 342 333 332 340 343 341 341 340 340 341 340 340 339 339 339 338 336 337 338 338 337 337 337 337 336 337 337 337 336 335 334 335 335 335 334 334 334 333 333 332 331 331 331 331 331 330 330 330 330 330 329 328 328 327 327 327 326 324 323 325 325 324 323 322 322 322 321 321 321 321 321
362 361 359 358 356 354 352 349 348 347 346 345 343 343 343 336 332 337 341 341 341 341 340 340 340 340 339 340 339 335 333 335 337 337 337 336 336 336 335 335 335 334 334 334 335 335 335 335 334 334 333 332 332 331 331 331 331 331 331 330 329 330 330 329 328 328 325 323 324 326 325 322 321 322 323 321 321 322 322 322 321 320 320 321 322
362 361 359 358 356 355 353 350 349 347 346 345 344 342 342 339 334 336 339 340 341 341 340 340 340 340 340 340 337 332 332 336 338 337 337 336 335 335 335 335 335 335 336 335 335 336 336 336 335 334 333 332 331 331 330 331 330 330 330 329 328 328 328 327 326 325 323 320 322 324 324 322 321 322 322 321 321 322 322 321 321 320 320 321 322
362 361 359 358 356 355 353 351 349 347 346 345 344 343 342 340 337 335 336 339 341 341 340 340 340 340 339 338 333 328 332 337 337 337 337 336 337 337 337 337 337 337 336 335 334 335 335 335 334 333 332 331 330 330 330 331 331 329 328 327 327 326 325 324 323 322 320 319 322 324 324 323 322 322 323 322 321 322 322 321 320 320 320 320 320
361 361 359 358 356 354 352 351 349 348 346 345 344 343 342 340 338 335 335 338 340 341 341 340 340 339 336 331 326 326 331 337 338 337 337 338 338 338 338 338 338 337 336 335 334 334 334 333 332 332 330 330 330 330 330 329 328 326 325 324 324 323 322 323 322 321 320 319 321 323 324 323 323 323 323 322 321 320 319 318 318 317 317 317 316
362 361 360 359 357 354 351 350 349 348 347 345 345 344 342 341 339 337 336 338 340 340 340 340 340 339 333 326 323 327 332 337 338 338 338 339 339 339 339 338 338 337 335 335 335 334 332 331 330 329 329 329 329 329 328 326 325 323 323 322 322 322 322 323 323 322 322 320 321 323 323 323 322 320 318 316 315 314 314 313 313 313 312 311 311
363 362 361 360 357 354 351 350 349 348 346 345 345 344 342 341 340 338 337 339 340 340 340 339 338 335 329 324 326 332 337 338 339 339 340 339 339 340 340 339 338 336 335 335 335 333 331 330 329 328 327 327 327 327 325 324 323 323 323 323 322 322 322 322 323 322 322 322 323 323 321 319 317 315 313 313 312 311 311 311 311 310 310 311 313
363 362 362 360 357 354 352 350 349 347 345 345 344 343 341 339 339 337 336 338 340 339 338 337 336 333 328 325 329 335 339 339 339 340 340 340 340 341 341 339 337 336 335 335 334 332 330 329 329 328 327 326 326 325 324 323 322 322 323 323 322 322 322 322 322 322 323 323 323 321 317 314 313 312 312 312 312 311 312 312 312 313 314 316 317
361 360 361 359 356 353 351 349 348 346 345 344 343 341 339 338 338 336 336 338 339 337 337 336 333 331 327 327 330 335 338 339 339 340 340 340 341 341 340 338 336 336 335 334 332 331 330 329 328 327 327 326 325 323 322 321 321 322 323 323 322 323 323 322 322 323 324 324 321 317 314 313 313 312 312 313 313 312 313 313 314 315 316 317 318
Wind_Speed
12 11 10 10 8 6 7 5 3 3 3 2 1 1 1 1 1 3 4 5 4 3 3 4 5 5 4 4 3 3 3 1 1 1 1 2 3 4 2 0 0 1 2 3 5 7 8 10 11 13 15 16 17 17 16 15 15 15 15 15 14 13 13 13 12 12 12 12 12 11 11 11 10 10 10 9 9 8 8 8 7 7 7 6 5
12 12 11 10 9 7 7 5 4 4 4 3 3 2 2 2 3 5 4 4 3 1 2 2 4 5 6 6 4 2 2 0 2 2 2 1 2 4 3 1 1 2 2 2 2 4 7 9 10 12 15 16 17 16 15 15 15 16 17 17 16 15 14 13 13 12 12 12 12 12 11 11 11 10 10 10 9 9 9 8 8 8 7 6 6
11 12 11 11 10 7 6 6 5 5 4 3 4 3 3 4 4 3 2 2 1 2 2 3 5 7 9 10 8 5 4 2 2 4 4 2 1 3 3 2 3 2 3 3 2 3 5 8 9 10 13 16 17 15 14 15 16 17 16 16 17 16 15 14 14 13 13 13 13 12 12 12 12 11 11 10 10 10 9 9 9 9 8 7 7
11 11 11 10 8 6 5 6 6 6 5 4 4 3 3 3 1 1 2 3 2 2 4 6 8 8 5 4 6 5 5 2 2 4 3 1 1 3 2 3 3 3 3 3 3 3 4 6 8 9 11 14 16 15 14 14 16 16 16 16 16 16 16 15 15 14 14 13 13 13 13 12 12 12 12 11 11 11 10 10 10 9 9 9 8
10 9 10 9 6 5 5 6 7 6 5 5 4 3 3 1 3 3 2 4 5 6 7 6 6 5 5 4 3 1 2 3 3 3 2 0 1 2 2 3 3 4 4 4 4 4 4 5 7 8 9 12 15 15 14 14 14 15 15 16 16 16 17 17 16 15 15 15 14 14 13 13 13 13 13 13 12 12 11 11 10 10 10 10 9
13 11 10 9 6 6 5 6 7 6 4 4 3 1 0 2 3 2 2 4 5 6 6 4 3 3 3 3 3 3 3 4 3 2 1 1 2 2 2 3 4 5 5 5 5 4 5 6 7 7 8 10 12 12 12 12 13 13 14 15 16 16 16 17 17 17 17 16 15 15 15 14 14 14 14 14 13 13 13 12 12 11 11 11 11
14 12 11 10 8 7 6 6 6 5 3 3 2 3 4 3 2 1 2 4 5 5 3 3 4 3 2 3 3 4 5 4 2 3 2 1 2 3 3 5 5 5 5 5 4 4 5 5 7 8 8 9 10 10 9 9 10 11 12 14 15 15 16 17 17 17 18 17 17 17 17 16 15 15 15 14 14 14 14 13 13 13 13 12 12
13 12 12 11 9 8 7 6 6 4 2 3 4 5 3 2 2 0 1 3 4 3 3 3 2 3 3 3 0 5 5 4 2 3 4 3 2 3 7 7 5 4 5 4 4 4 5 5 7 8 8 9 9 8 8 8 8 9 10 12 13 14 15 15 16 17 18 18 18 19 19 19 17 16 16 15 15 15 14 14 14 14 14 14 14
13 12 12 12 10 10 9 7 6 4 3 6 5 3 3 4 3 1 1 2 3 4 6 4 1 3 6 2 4 6 6 4 2 2 3 4 3 4 8 7 5 3 5 5 5 5 5 6 7 6 7 8 8 8 8 8 8 8 9 10 10 11 12 13 14 14 15 17 17 18 19 19 19 19 18 17 16 16 15 15 15 15 15 15 15
13 13 13 12 11 12 10 8 6 4 6 7 3 3 5 5 3 2 1 1 3 6 7 6 1 2 7 6 5 4 3 3 3 3 3 4 4 3 5 7 6 5 6 7 7 7 7 6 6 5 5 6 6 7 8 8 8 8 9 10 9 9 10 11 11 12 13 14 16 17 17 18 19 19 19 18 17 17 17 17 17 17 17 16 16
13 13 14 13 12 12 10 8 7 7 9 6 4 7 7 4 3 3 2 1 3 5 6 6 2 2 3 2 3 0 1 3 5 5 5 5 6 5 4 7 9 9 8 7 7 8 8 8 7 6 6 6 6 6 6 7 7 8 9 9 9 9 9 10 10 11 12 12 12 13 14 15 16 17 18 18 18 18 18 18 19 19 18 18 17
13 13 13 13 13 12 10 8 8 10 9 6 7 8 5 2 3 3 2 1 2 3 3 4 3 2 3 2 2 1 1 3 7 7 7 8 9 8 8 9 10 9 7 5 6 8 9 9 7 7 7 6 5 5 5 6 7 7 7 8 8 8 9 9 9 10 10 10 10 11 12 13 14 15 16 17 18 18 18 18 18 19 20 20 19
14 13 13 13 13 12 10 9 11 12 8 7 8 5 3 4 4 3 2 2 3 2 2 2 4 4 3 2 3 4 2 2 5 7 8 9 10 10 10 11 9 8 6 4 5 8 9 8 7 7 6 5 3 4 5 6 6 6 6 6 6 6 7 8 9 9 9 9 10 11 11 12 13 13 14 15 16 18 18 18 18 18 19 20 20
14 13 13 14 14 12 11 12 13 12 9 8 7 5 5 5 4 3 2 2 3 2 0 0 1 3 2 1 1 4 5 4 3 6 10 11 11 11 10 10 9 8 7 5 7 10 10 9 7 5 5 4 3 4 5 5 5 4 4 4 3 4 4 5 7 8 9 9 10 11 11 12 12 13 13 14 15 16 17 18 18 18 18 18 19
14 14 14 15 15 12 12 14 14 13 12 9 8 8 6 4 4 4 4 2 2 1 1 1 2 1 1 2 0 2 2 3 3 3 10 12 11 13 11 9 9 8 8 9 12 13 11 8 6 4 4 4 3 4 4 3 3 3 2 2 2 2 2 2 3 5 6 7 8 9 10 11 11 12 12 13 13 14 15 16 17 17 17 17 18
15 14 16 17 15 13 15 15 13 14 13 10 10 9 7 5 5 4 3 2 2 2 2 1 1 1 3 1 0 2 1 2 5 3 8 13 13 14 11 8 9 9 10 12 12 10 7 6 6 5 4 3 4 4 3 2 1 2 2 1 0 1 1 2 2 3 4 5 6 6 7 8 8 9 10 11 12 13 14 15 16 16 16 17 17
16 16 17 17 14 15 17 15 14 13 11 10 10 9 8 7 5 3 4 3 3 5 4 2 3 4 5 3 2 2 1 2 3 4 9 16 15 13 11 9 7 8 11 11 9 7 5 6 8 7 5 4 5 5 3 1 2 2 2 2 2 1 1 2 3 4 5 6 6 7 7 8 7 7 8 9 10 11 12 13 14 15 16 16 17
16 17 17 16 16 18 18 17 15 13 11 11 10 10 10 8 7 5 5 6 5 7 7 5 7 7 8 6 4 4 3 0 1 2 5 10 14 13 10 9 8 9 12 12 10 8 5 6 8 8 6 6 5 4 2 1 1 2 3 3 3 3 2 2 2 4 5 5 5 6 7 8 8 8 9 9 10 11 11 12 12 13 14 14 15
16 17 17 17 19 19 18 17 16 13 13 12 11 11 10 8 11 10 7 7 6 7 8 6 6 7 7 7 6 6 4 3 2 2 1 3 9 14 11 7 8 11 14 14 12 10 8 7 7 6 6 6 6 5 3 2 1 1 2 3 3 3 3 3 3 4 5 6 6 6 6 7 7 7 8 9 10 11 12 13 13 13 13 13 14
17 17 18 19 20 20 18 18 17 14 14 14 11 10 10 11 14 12 9 8 7 9 8 6 6 7 7 7 6 5 5 3 2 3 3 1 1 7 8 7 7 10 12 12 11 11 10 9 6 5 7 7 6 6 5 4 3 2 1 2 3 4 4 5 5 5 6 6 7 7 7 8 7 7 7 7 8 10 11 13 13 14 14 14 13
17 17 19 20 20 20 19 19 18 15 15 15 11 10 13 15 15 13 12 10 8 9 8 7 8 7 6 7 6 4 4 3 3 3 3 2 1 1 1 3 6 8 12 13 12 11 10 8 5 5 7 7 6 6 6 6 5 4 4 3 4 5 5 6 7 7 7 7 7 8 8 8 8 8 8 8 8 8 9 10 12 13 14 14 14
20 18 19 22 21 19 19 20 18 17 17 16 13 14 14 14 12 11 13 11 9 10 9 8 10 7 5 6 6 3 2 2 2 2 2 2 1 0 5 5 2 5 11 12 11 11 9 6 5 6 8 8 7 8 8 8 7 6 6 6 7 7 7 7 8 9 9 9 8 8 9 9 9 9 9 9 9 9 9 9 10 11 12 13 13
22 21 21 23 21 19 19 20 18 18 17 15 15 17 14 12 11 11 12 10 9 10 9 9 10 8 7 7 6 4 3 3 3 2 3 3 1 1 3 4 3 2 5 7 6 7 6 6 7 8 9 10 9 9 10 9 8 8 8 8 9 9 9 9 9 10 11 10 9 9 9 10 10 10 10 9 9 9 10 10 10 10 11 12 13
23 24 24 23 22 21 20 20 19 18 17 14 16 17 14 12 12 13 12 10 10 10 9 10 11 10 9 7 6 5 5 6 5 4 4 4 3 2 1 2 2 3 3 6 4 5 5 6 8 9 10 11 10 10 11 11 10 10 11 10 10 10 10 9 9 12 13 11 9 9 10 11 11 12 11 11 11 11 11 11 12 12 12 13 13
25 26 25 24 23 24 23 22 20 18 17 16 16 16 14 14 15 15 14 12 11 11 10 11 11 10 9 6 5 5 5 5 5 5 5 5 4 3 1 1 1 1 2 5 6 7 7 6 7 8 10 13 12 12 13 13 12 12 13 12 12 12 12 12 12 14 14 11 9 10 11 12 13 13 13 13 13 14 14 14 13 13 14 14 14
27 27 27 26 26 25 23 22 20 20 19 19 17 15 15 17 17 16 16 15 13 12 11 12 11 9 8 7 5 5 4 3 4 5 5 6 6 4 2 1 0 1 1 4 7 8 9 8 8 9 12 14 15 14 15 15 15 15 14 13 13 13 14 15 15 16 15 12 11 12 13 14 15 15 14 15 15 16 17 17 16 16 15 14 14
27 29 29 28 28 26 23 22 21 20 20 22 19 16 17 20 19 17 16 16 15 14 13 13 12 10 9 9 7 7 5 2 3 5 4 6 8 8 6 3 0 2 2 3 5 7 8 8 7 9 13 16 17 17 17 16 15 15 14 14 14 14 14 15 16 17 17 15 15 15 16 16 16 16 16 17 18 19 19 20 19 18 16 15 14
28 29 30 29 29 28 25 22 22 20 21 23 21 18 20 22 20 17 17 17 17 15 14 13 13 12 11 10 9 9 9 5 4 4 3 5 6 6 6 5 3 1 2 3 4 4 5 6 5 6 9 13 15 16 16 16 14 14 15 15 15 15 15 16 16 17 18 20 20 20 19 19 18 19 19 19 20 21 22 22 22 21 19 17 15
30 29 30 31 30 29 27 24 24 23 22 24 23 20 22 23 21 19 19 19 18 17 16 15 14 13 13 12 10 9 9 9 8 6 4 4 4 3 4 4 5 4 1 2 3 3 5 8 7 7 8 9 10 10 13 14 14 14 15 15 15 15 16 16 18 19 20 21 22 22 22 22 22 22 22 22 23 22 21 21 22 23 22 19 17
33 31 31 31 30 29 28 26 26 26 25 25 25 23 23 23 22 21 19 19 19 18 18 16 15 14 14 14 13 11 9 8 8 7 6 6 6 6 5 5 6 7 5 3 3 6 9 12 10 9 8 7 6 7 10 12 13 13 14 15 16 17 18 19 21 22 23 23 23 23 25 25 25 24 24 23 22 21 20 19 20 21 23 22 19
35 34 32 32 31 30 29 29 28 28 27 27 26 24 25 25 24 22 20 20 19 18 18 18 16 16 16 13 12 13 11 8 7 6 5 6 7 7 7 7 9 10 10 7 3 6 11 11 11 10 9 9 9 10 12 14 15 16 16 17 19 20 21 23 23 23 24 24 24 23 23 23 23 22 22 21 20 19 19 19 19 19 20 22 22
36 36 34 33 33 32 31 30 30 30 29 29 28 26 26 27 26 25 24 22 21 20 20 20 18 18 18 14 11 12 11 9 8 8 8 8 8 8 8 9 10 11 13 12 7 8 14 15 14 14 13 12 13 14 15 16 16 18 19 19 20 22 22 22 23 23 25 25 24 22 21 21 21 21 22 21 21 20 20 21 21 21 21 21 23
37 37 37 36 35 34 34 33 32 32 31 32 32 30 28 28 27 26 26 26 24 22 21 21 21 20 18 16 14 13 13 11 11 11 11 10 10 11 10 11 12 12 14 14 11 11 15 16 16 15 13 13 13 14 14 15 15 16 17 18 19 21 21 22 22 23 24 25 25 24 23 22 22 21 21 21 21 22 22 22 23 23 23 23 24
39 39 39 38 37 36 36 35 34 34 34 34 34 33 30 30 29 28 28 28 27 25 24 23 23 21 19 19 17 16 14 13 13 12 12 11 12 12 12 12 14 14 15 15 14 12 13 15 16 15 14 13 13 13 12 13 13 14 16 17 18 19 20 21 23 24 23 23 24 24 24 24 23 23 23 22 22 23 24 24 23 23 23 24 24
39 40 40 40 39 38 38 37 36 36 36 35 36 36 34 33 33 31 30 30 29 28 27 27 24 22 21 21 20 18 16 15 14 13 12 12 13 13 13 13 14 14 14 14 14 14 14 15 14 14 13 12 12 12 12 14 15 16 17 18 18 18 19 20 21 22 22 22 22 22 23 23 24 24 25 24 24 24 25 25 25 24 23 23 23
38 40 40 40 40 40 39 39 39 38 38 38 37 38 37 35 34 33 32 32 31 30 29 28 26 25 23 22 20 19 18 16 15 14 14 14 14 14 14 14 14 13 12 13 14 14 15 14 13 12 13 12 12 13 13 15 16 16 17 17 17 19 20 20 20 21 21 22 22 22 22 22 24 25 25 25 25 24 24 25 25 26 26 25 25
39 39 39 40 41 41 41 40 40 40 40 39 38 38 38 35 33 33 33 33 32 31 30 29 27 27 26 23 21 19 18 17 16 15 15 15 15 15 15 16 15 15 14 14 14 14 14 14 15 15 14 13 14 15 14 14 15 16 16 17 18 19 20 20 20 20 20 20 20 21 21 22 23 24 24 24 25 25 25 25 26 27 27 27 27
39 39 40 41 41 42 42 41 40 40 39 39 38 36 33 32 33 34 34 34 33 31 30 29 28 28 27 25 23 20 19 18 17 16 16 16 16 16 16 17 16 15 15 15 14 13 13 14 15 16 16 15 16 16 15 14 15 16 17 18 19 18 17 17 18 18 17 17 18 20 22 24 24 24 25 25 26 26 26 26 27 27 27 28 28
39 40 40 41 41 41 41 41 40 40 38 38 36 33 31 34 36 37 36 35 33 31 30 29 29 29 27 25 23 21 21 20 18 17 16 16 16 17 17 17 15 15 15 14 13 12 12 13 14 15 16 16 16 16 16 14 15 16 17 19 20 18 16 15 17 19 18 17 19 21 23 23 23 23 23 23 23 24 25 26 26 26 27 28 29
40 40 41 41 40 40 40 40 39 38 37 36 35 33 36 39 39 37 37 35 33 32 30 29 28 27 26 25 23 22 22 21 19 18 17 17 17 17 17 16 15 15 14 13 12 11 12 13 14 15 16 16 16 15 15 14 14 16 16 16 18 18 16 16 17 18 19 19 20 21 21 21 21 21 21 20 20 21 22 24 26 27 29 29 29
39 39 39 40 39 38 38 38 38 37 37 36 36 38 41 41 38 37 36 34 33 32 30 29 28 26 26 25 24 23 22 21 19 17 17 18 18 18 18 17 17 17 15 14 13 13 13 14 16 16 16 16 15 14 14 14 14 15 14 13 15 16 15 16 18 19 19 19 19 19 20 20 21 21 20 20 21 23 25 27 29 30 30 29 29
39 37 37 38 38 38 37 38 38 37 37 37 38 41 43 41 39 37 34 33 33 31 30 29 28 27 26 25 23 22 21 20 20 19 19 19 20 21 20 19 19 18 16 15 15 15 15 15 17 16 14 15 16 15 15 15 15 14 14 13 14 15 14 14 17 20 19 16 15 18 21 22 23 23 22 24 26 28 28 28 28 27 26 25 25
38 37 36 36 38 38 38 39 39 38 38 39 40 42 43 42 40 36 33 33 33 32 31 29 29 28 27 25 24 23 21 20 20 20 20 20 21 22 21 20 19 18 17 17 17 18 17 17 18 16 14 15 17 17 16 16 15 14 14 14 15 16 14 12 13 18 20 19 18 21 25 27 26 25 25 26 28 28 27 26 24 24 25 24 24
38 37 36 37 38 39 39 40 40 39 39 40 41 43 43 43 41 36 34 32 31 31 31 30 29 28 26 25 24 21 19 19 20 20 20 20 20 22 22 21 20 19 19 19 19 20 19 19 18 18 17 18 19 18 16 15 14 14 15 16 16 14 13 12 13 18 23 25 25 25 26 27 26 25 26 26 26 26 25 24 24 24 25 24 24
38 37 36 37 38 39 40 40 40 40 39 39 41 42 43 43 42 37 33 31 30 31 31 31 30 27 24 23 23 20 19 19 20 21 21 20 20 21 21 21 21 20 19 19 20 21 21 20 20 20 20 19 18 17 16 14 14 15 17 17 16 14 13 15 19 23 26 25 25 25 24 25 25 25 26 26 26 26 25 25 25 26 25 24 23
38 38 36 36 38 40 41 41 40 39 38 39 41 42 42 43 43 40 34 30 29 30 30 31 30 28 26 24 23 22 20 20 20 21 22 21 21 21 21 20 20 19 19 19 18 17 18 18 20 21 20 19 19 19 18 17 17 17 17 18 18 17 18 20 23 25 24 22 24 23 19 22 26 24 26 28 28 27 26 24 24 23 21 21 21
37 38 36 36 37 39 40 39 38 37 37 38 40 41 42 42 43 41 35 30 29 30 30 30 31 29 28 26 25 23 22 22 22 21 22 21 21 20 19 19 18 18 18 17 15 14 14 15 17 19 18 18 18 19 18 17 17 16 17 19 19 20 21 22 23 25 24 23 25 20 16 21 25 23 24 26 25 23 23 22 22 22 23 25 27
34 36 36 35 36 37 38 37 37 35 35 37 40 41 41 41 41 41 35 30 30 31 31 31 30 29 28 26 25 24 24 24 23 23 23 21 19 18 18 18 18 18 16 13 12 12 13 13 15 16 15 14 14 14 14 13 15 17 18 18 20 21 20 19 20 24 26 25 23 19 17 20 20 18 20 23 24 25 28 27 27 28 30 31 32
31 32 33 33 33 34 34 35 36 34 33 36 39 40 41 40 40 40 36 31 29 30 30 30 30 30 28 25 24 24 25 25 24 24 23 21 19 19 18 17 17 17 15 12 11 12 13 14 14 12 10 9 9 10 12 13 16 19 18 18 22 23 18 14 15 19 24 25 21 17 15 15 16 19 23 26 27 29 29 29 29 29 30 30 29
29 27 27 28 28 30 33 34 35 34 33 35 38 39 39 38 39 40 36 31 28 28 30 30 31 32 30 25 23 25 26 25 24 23 22 20 19 19 18 17 17 16 14 12 11 12 12 12 11 9 8 8 10 11 13 16 18 19 19 21 25 24 18 14 15 17 21 23 18 13 14 17 21 25 25 25 27 29 26 25 28 29 29 29 28
26 24 23 24 25 28 31 33 34 33 32 33 34 35 35 37 39 39 35 31 29 29 30 30 30 32 30 25 23 26 27 25 24 23 21 19 19 19 19 18 17 17 15 13 13 12 12 12 12 11 12 13 14 15 15 15 15 17 20 22 22 21 19 19 18 15 12 13 12 12 16 20 23 24 22 17 17 21 24 24 27 30 31 30 29
Wind_Direction
203 202 200 198 201 186 177 177 171 178 185 192 134 139 183 104 331 309 307 293 289 297 276 268 274 276 275 261 251 246 263 358 187 213 217 220 214 206 195 154 184 136 123 147 176 188 184 184 188 190 186 194 208 209 205 199 197 199 200 202 205 208 211 210 210 208 208 208 210 212 213 214 215 217 218 218 219 219 219 218 218 219 220 223 229
196 193 194 187 188 182 177 195 205 199 192 188 197 204 218 242 297 312 313 297 290 309 299 285 268 274 281 269 259 230 247 254 171 202 214 224 232 220 226 226 192 175 161 130 134 175 185 183 187 191 187 199 215 214 211 208 204 205 204 203 203 206 210 214 215 214 213 214 214 215 216 217 220 221 221 223 224 226 227 227 227 227 228 232 236
184 181 183 182 186 188 191 211 217 204 190 189 208 220 241 276 310 324 352 353 10 49 7 331 315 301 281 263 261 256 253 252 202 219 226 239 245 228 237 218 183 169 170 154 122 149 183 183 184 191 190 202 219 219 215 218 215 211 209 208 207 207 210 213 218 218 219 221 221 220 220 220 222 222 224 225 226 229 231 233 234 234 235 237 242
175 180 186 191 195 205 213 216 215 206 203 209 217 229 262 295 337 92 58 25 13 1 334 314 312 324 323 264 254 249 237 218 183 196 188 173 205 205 203 199 184 167 163 149 138 144 170 183 183 189 191 200 219 222 217 223 226 221 215 213 214 214 214 214 217 220 222 224 226 227 227 227 227 226 227 229 230 230 231 233 236 239 241 242 243
185 192 195 200 204 216 211 201 207 212 212 219 234 262 290 327 113 101 36 349 339 333 327 313 304 327 15 59 88 113 170 142 122 157 164 145 207 190 178 190 177 167 163 137 137 150 169 186 184 188 190 196 215 225 222 224 230 231 226 220 220 219 218 220 220 223 224 224 226 229 230 232 232 232 233 234 235 235 235 235 236 239 242 244 246
202 200 199 207 210 214 208 202 212 219 222 239 262 284 106 137 124 82 17 347 331 322 329 344 338 314 326 353 5 27 85 109 112 159 206 284 189 185 191 200 185 168 160 143 142 147 169 193 191 191 192 194 210 224 229 229 228 230 230 229 228 224 222 223 224 226 229 228 228 231 232 232 233 234 236 237 239 240 241 241 241 241 242 244 245
208 201 200 208 211 214 214 223 225 224 246 254 226 134 128 133 90 26 345 340 306 293 323 348 333 292 264 307 347 46 81 95 110 159 157 147 196 218 212 202 188 176 169 155 154 154 165 190 196 196 195 196 206 216 226 231 230 229 231 234 233 230 228 227 228 229 231 231 230 232 234 235 235 235 235 237 239 241 243 245 246 246 245 245 245
210 203 201 202 210 216 216 231 226 224 249 196 163 143 142 128 84 19 327 330 298 302 339 324 303 302 296 273 148 78 86 90 89 130 128 119 143 172 176 176 170 180 186 162 161 170 161 178 196 200 196 199 204 208 217 224 228 232 236 239 234 230 232 231 233 234 233 232 232 234 236 238 239 240 239 239 239 240 242 243 245 247 248 248 247
211 205 202 199 205 213 219 225 217 220 214 173 159 159 167 151 122 41 325 284 308 348 355 4 52 24 26 68 136 109 106 104 104 133 133 133 127 132 146 153 152 168 178 153 143 157 156 171 188 192 192 202 209 207 213 217 220 225 233 240 236 233 235 234 233 234 236 236 235 236 237 239 240 242 244 245 245 245 244 243 244 246 249 250 250
212 206 203 197 198 209 217 213 206 203 190 176 158 161 166 157 122 75 86 281 339 357 12 29 29 3 38 71 116 120 124 132 147 159 165 162 151 143 132 126 127 133 143 135 123 129 135 146 163 173 182 196 210 213 215 217 219 223 227 233 236 237 238 238 235 235 238 240 240 238 238 241 242 244 245 246 248 249 249 249 248 249 251 252 254
211 207 205 198 196 207 210 206 205 190 178 166 134 143 150 151 131 114 119 331 330 335 4 21 348 281 332 28 103 339 294 166 170 160 159 159 140 132 123 116 117 116 119 122 119 120 120 119 131 151 163 171 185 205 213 215 221 226 230 233 236 239 237 236 237 236 238 242 244 241 240 242 244 247 247 246 247 249 251 252 252 253 253 254 254
206 207 207 197 197 206 209 209 195 176 163 143 143 146 132 116 121 111 94 18 326 323 3 14 354 314 310 337 128 232 325 160 179 164 145 145 139 126 117 119 116 109 111 124 131 121 115 112 112 130 149 156 169 187 194 200 209 215 227 233 235 240 238 237 238 238 240 241 242 244 244 244 245 247 246 246 247 248 251 253 255 256 256 255 255
208 206 202 194 197 206 212 201 178 167 151 142 161 164 122 115 119 107 81 37 34 43 40 8 350 339 332 357 159 196 231 174 178 185 173 155 146 135 127 130 123 113 114 126 150 135 118 115 108 114 136 136 145 179 180 177 183 192 212 227 232 233 231 235 238 238 240 239 239 242 244 245 246 246 246 247 248 249 252 255 259 260 257 255 255
211 205 196 193 199 208 208 186 171 167 158 156 169 163 148 145 138 128 108 41 22 34 16 336 325 318 324 21 160 195 217 215 210 209 184 158 142 140 140 141 136 128 126 126 145 140 121 112 105 105 128 121 122 164 168 162 163 172 195 218 230 226 223 234 238 236 240 241 241 242 243 244 245 247 249 250 250 251 253 256 259 260 258 256 256
208 206 199 196 204 206 191 176 171 176 177 176 174 167 168 156 139 133 112 56 347 259 201 225 264 276 91 82 123 172 203 244 280 243 174 160 148 148 146 139 140 142 136 129 133 133 122 112 108 109 128 120 116 140 149 152 149 138 150 181 209 209 201 223 239 238 241 246 250 249 249 249 248 250 251 251 252 253 254 257 258 258 257 257 257
205 207 201 200 206 196 180 176 177 184 188 187 180 178 176 146 136 145 139 95 51 136 163 313 300 91 99 123 185 104 80 312 328 358 145 152 152 155 154 141 145 153 138 125 128 135 126 108 112 117 128 130 126 129 133 128 101 85 74 84 193 246 241 240 252 258 266 273 275 271 267 262 258 256 257 256 257 257 257 259 261 260 258 258 258
203 204 201 204 202 183 179 179 177 183 188 185 179 179 172 155 151 162 166 163 111 126 146 109 90 88 95 115 78 97 185 292 349 46 119 139 150 156 148 131 143 164 150 133 133 140 122 107 123 130 130 139 141 139 146 112 47 55 54 67 83 54 321 286 283 288 295 295 290 286 283 280 276 271 268 266 266 266 266 265 266 266 264 263 261
203 203 201 200 187 177 182 182 179 182 180 176 174 178 177 168 172 174 159 160 136 130 144 128 110 99 95 100 88 113 157 38 67 75 99 132 151 156 144 127 132 150 148 144 146 145 129 125 138 145 147 156 164 166 192 289 18 82 86 77 73 66 59 21 338 325 324 317 309 300 292 288 284 279 275 272 272 272 273 272 271 272 270 269 266
199 201 195 184 176 178 186 185 182 180 175 174 174 180 187 172 174 182 162 150 139 125 131 127 121 112 104 109 99 104 111 84 112 137 62 108 147 156 158 144 137 144 145 145 151 153 152 153 150 155 168 179 189 197 215 238 211 151 97 58 38 27 21 10 355 339 333 329 327 323 316 310 300 291 284 277 274 273 273 273 273 273 273 274 273
188 189 181 174 174 179 187 187 185 184 179 177 178 186 193 176 173 185 182 163 145 125 116 111 127 121 118 126 115 106 113 101 94 117 127 69 120 156 167 172 168 163 156 155 161 160 158 161 163 180 192 192 200 206 215 227 231 242 267 359 359 351 351 350 344 333 324 319 318 318 319 319 317 312 304 294 286 279 277 277 277 276 274 274 274
185 182 176 177 177 179 185 187 189 189 180 175 177 182 183 175 172 183 186 178 160 142 125 119 130 126 127 136 127 125 133 118 107 112 118 111 299 306 87 158 173 160 156 162 173 173 167 167 178 202 200 197 213 223 225 233 249 264 269 293 321 325 325 330 334 331 322 313 308 308 307 308 311 312 312 309 304 298 292 287 285 283 280 277 273
187 185 183 185 182 183 186 188 191 189 180 179 184 181 181 181 181 181 180 180 171 154 143 140 139 134 144 150 141 138 137 117 126 159 149 123 181 345 41 51 80 133 153 163 171 174 174 184 205 211 205 207 222 231 232 238 247 259 270 288 304 308 304 307 321 328 324 312 301 299 299 299 300 301 304 306 306 306 305 301 297 293 290 286 280
187 186 186 187 185 186 186 185 188 184 179 186 191 191 195 196 185 173 171 179 179 164 157 159 157 153 158 158 155 156 157 143 111 119 164 132 129 162 74 62 42 79 166 180 175 177 190 225 235 227 221 220 222 226 232 242 253 266 277 290 299 297 292 296 310 324 326 312 296 293 295 293 294 294 296 298 299 301 302 303 304 301 298 294 290
182 182 183 186 188 188 184 182 186 185 185 192 194 194 195 188 176 169 172 178 179 179 181 175 167 165 167 168 176 186 184 170 147 134 154 150 163 200 147 118 83 57 165 195 210 225 237 253 249 241 231 223 221 221 225 237 252 269 280 291 298 290 284 290 302 319 324 313 297 297 299 297 295 292 290 292 294 295 297 299 300 301 300 297 294
180 182 184 188 189 186 184 185 189 191 191 189 189 192 189 181 179 179 181 181 181 189 193 181 173 171 172 184 206 207 202 198 182 172 173 171 175 204 231 173 159 82 181 215 244 243 242 263 265 254 234 221 222 222 223 235 250 264 277 289 294 289 286 292 300 312 316 306 295 296 298 299 299 296 291 289 289 290 291 293 296 298 299 298 297
184 185 185 187 186 185 187 190 192 193 192 185 184 193 193 187 186 188 188 188 193 199 197 187 187 189 189 199 211 197 184 202 210 198 193 192 186 184 181 150 284 266 215 259 261 232 234 273 283 267 246 230 232 235 233 241 252 262 275 283 286 286 289 295 300 306 308 300 293 293 294 295 296 297 294 292 292 291 289 288 288 292 295 297 297
188 187 186 187 188 188 189 190 191 194 193 186 186 193 194 190 191 191 191 193 197 199 198 195 196 204 208 207 207 200 190 193 209 197 191 188 179 174 172 155 329 309 307 293 279 246 253 290 297 275 258 243 242 244 244 251 259 267 276 278 279 281 283 290 295 299 301 299 296 294 293 292 290 290 289 290 293 294 292 286 282 283 287 291 292
188 187 188 190 190 189 190 191 192 196 194 188 188 189 187 188 190 188 189 195 197 197 203 204 204 210 213 210 213 212 208 213 209 187 174 173 167 172 185 175 170 265 328 310 292 270 276 311 330 310 280 256 246 244 246 256 266 273 278 278 279 280 280 284 289 291 294 297 297 295 294 292 288 286 285 286 289 293 292 286 279 275 277 282 285
189 186 188 191 191 190 192 192 193 197 196 190 188 187 184 184 188 190 194 200 200 200 206 208 208 213 213 212 218 215 207 218 228 224 229 222 204 210 227 208 187 183 189 273 277 261 279 302 314 321 307 272 250 246 245 253 264 272 276 279 281 281 281 283 286 288 291 293 293 293 293 292 290 288 287 288 290 292 289 284 278 273 270 272 276
190 187 189 191 192 192 193 194 196 199 200 193 190 193 190 186 189 194 198 201 202 204 208 211 212 215 216 218 223 219 209 216 227 232 241 245 245 249 251 244 226 213 207 217 262 269 277 291 296 302 305 281 257 260 259 263 271 273 274 277 279 284 286 288 290 292 294 293 293 292 291 290 290 289 290 291 291 290 288 285 281 275 268 267 270
191 190 190 191 192 193 194 196 198 201 200 195 193 197 197 194 194 197 199 199 202 207 209 212 216 217 220 224 226 220 214 212 215 224 234 234 240 247 246 239 233 234 234 227 240 268 269 283 291 289 290 285 278 280 280 280 280 279 281 281 281 285 289 291 293 295 295 294 294 292 289 288 288 288 288 288 289 288 287 285 284 279 271 266 267
193 192 193 193 193 194 195 196 197 200 200 197 195 196 198 200 199 199 201 202 205 209 210 212 217 220 222 226 223 215 212 211 213 224 229 224 227 233 239 240 236 239 242 235 232 257 262 271 281 281 280 281 279 279 280 280 277 277 279 280 280 282 283 285 287 290 293 294 294 292 290 289 288 286 285 284 284 285 285 285 284 281 276 269 266
195 195 195 195 196 196 195 196 197 199 199 198 197 198 199 202 203 204 204 204 207 210 209 211 218 221 223 224 223 218 217 219 220 226 233 233 236 238 239 241 240 240 243 239 238 257 266 270 276 279 278 275 275 276 277 278 278 276 275 275 276 275 276 279 281 285 289 292 293 293 291 289 286 284 283 280 279 280 283 287 286 283 281 277 274
197 197 197 196 197 197 197 197 198 200 201 200 198 199 200 202 203 204 204 204 208 210 209 211 217 221 221 221 221 217 214 214 215 221 232 235 237 240 239 237 240 243 244 242 241 249 262 268 273 278 277 273 275 278 277 278 281 282 279 278 277 276 278 281 281 283 285 287 289 290 291 291 287 284 283 282 279 279 283 286 288 287 284 283 282
198 199 199 198 198 198 198 198 199 201 202 201 200 199 200 201 202 203 203 206 210 211 209 210 212 216 220 222 220 214 210 212 217 224 231 231 232 238 240 240 241 243 244 245 244 247 257 266 269 271 275 278 280 279 278 279 282 283 282 282 280 279 280 282 281 281 283 284 285 285 289 291 290 288 288 286 285 284 285 287 287 287 286 284 284
200 200 201 200 200 200 199 199 201 202 202 202 201 201 202 202 202 202 204 207 211 212 212 213 212 213 217 219 216 212 213 218 222 226 228 228 231 234 238 240 240 242 245 246 249 252 258 266 269 270 277 283 283 281 281 283 285 286 285 283 281 281 284 284 282 281 282 284 282 281 284 287 289 290 291 290 289 288 288 288 289 288 286 283 282
201 202 201 202 202 201 201 201 202 203 204 202 201 203 204 205 205 206 207 209 211 214 216 217 215 213 214 216 214 213 217 222 225 226 228 230 232 233 238 242 240 242 246 246 248 250 254 265 275 282 288 290 289 289 289 288 289 290 287 283 283 288 293 294 288 283 283 283 281 280 282 285 287 288 288 290 290 289 289 289 291 291 289 286 284
203 203 203 204 204 203 204 204 204 205 204 203 202 202 202 206 210 212 212 213 213 215 218 219 217 214 213 215 217 218 222 225 225 226 230 233 234 236 241 242 241 244 247 245 243 245 253 267 278 285 291 293 294 295 296 295 292 289 287 287 291 296 299 299 297 293 288 283 282 284 287 288 287 286 286 287 286 287 288 290 291 292 291 289 287
204 204 205 205 205 206 206 206 206 206 204 203 202 197 199 208 213 214 215 215 214 214 216 218 216 214 214 215 218 221 223 225 225 227 232 236 238 238 237 238 241 245 243 241 242 247 258 268 274 279 286 291 292 292 296 300 294 286 283 286 292 300 302 298 297 297 292 286 287 291 293 293 293 293 293 292 289 288 288 289 290 291 290 289 289
205 206 206 206 206 207 207 207 207 207 205 203 198 195 202 210 212 213 214 214 213 214 216 216 215 214 214 215 217 221 225 227 228 229 232 236 238 237 235 238 242 242 240 240 244 251 259 264 269 275 280 284 283 283 291 299 293 286 287 285 285 293 299 296 295 297 295 293 295 298 299 300 301 302 301 298 294 290 287 287 288 288 287 287 286
206 207 207 207 206 206 207 208 208 207 205 202 198 198 205 210 212 214 215 214 213 215 216 216 215 214 213 214 218 223 229 233 236 235 234 235 237 237 239 241 241 240 243 244 245 252 258 261 268 273 274 274 275 279 289 295 292 291 297 293 286 290 294 294 296 298 298 299 300 302 302 303 303 301 299 294 289 286 286 288 289 289 288 287 287
205 206 207 206 206 206 206 207 208 208 205 202 200 203 207 211 213 214 214 214 213 213 213 213 212 213 213 214 218 222 228 237 244 244 239 236 238 240 242 241 238 237 239 242 247 254 257 259 265 268 267 270 276 281 285 289 289 289 290 290 293 299 300 295 296 300 302 303 302 299 299 300 300 296 293 290 289 289 290 293 295 296 295 294 292
204 205 206 205 206 206 207 207 208 207 206 204 203 205 209 213 214 212 211 213 213 211 211 210 210 211 212 214 217 221 226 235 243 245 243 240 240 240 240 239 238 240 244 250 255 257 256 257 261 262 262 267 274 278 280 282 282 278 279 285 293 297 296 294 295 299 302 303 299 295 295 298 300 296 294 295 295 295 296 297 301 304 304 301 297
203 203 204 205 206 206 207 208 208 208 207 205 204 207 211 214 214 212 212 214 213 210 209 210 211 210 209 212 218 225 230 232 238 244 243 241 239 237 237 240 245 251 257 262 263 262 260 257 258 260 261 264 268 273 275 276 273 273 278 285 288 285 281 281 281 288 297 301 296 290 292 299 304 300 297 300 301 299 298 298 301 305 305 301 297
201 201 203 204 205 205 207 208 208 208 207 205 205 209 213 214 214 213 212 214 213 210 209 210 211 209 206 210 218 227 231 232 239 245 244 242 240 238 241 247 252 258 263 268 271 270 268 263 259 262 266 266 268 272 274 271 272 278 281 281 281 274 269 274 277 284 295 298 291 285 287 297 303 298 294 299 302 299 297 297 299 301 301 298 294
199 200 202 203 203 205 207 208 207 208 207 206 207 211 215 216 215 213 213 215 214 212 209 210 211 210 210 215 222 228 231 233 239 243 242 242 241 241 244 248 253 259 266 271 273 271 268 265 261 264 271 273 273 276 278 276 277 280 279 279 281 279 277 282 286 288 293 293 288 285 283 292 298 293 289 297 301 298 297 299 300 301 301 298 295
199 200 201 203 205 206 207 207 206 206 207 206 208 213 216 217 216 213 213 215 215 212 210 209 211 213 217 224 228 230 230 233 236 239 238 238 239 240 244 248 255 264 270 273 274 271 269 269 267 269 273 273 272 273 274 275 277 281 283 284 285 285 285 287 288 289 290 293 295 288 276 286 295 290 288 298 303 301 301 303 303 303 301 298 296
199 200 202 204 207 206 205 205 204 205 206 207 209 214 217 217 215 211 211 214 213 210 208 207 210 215 221 227 229 229 232 235 236 237 236 236 238 241 244 251 260 268 271 271 271 272 275 279 278 277 277 273 270 270 271 276 284 290 291 288 286 285 282 280 283 286 288 295 302 296 282 288 299 300 302 309 312 307 305 305 304 302 300 298 297
196 199 202 205 207 205 202 202 202 203 204 206 210 215 216 215 213 209 208 211 211 209 207 208 212 216 221 228 231 231 234 235 235 236 236 237 239 240 244 253 262 266 268 268 266 267 270 274 274 272 272 270 268 268 272 281 292 295 289 283 284 285 279 274 277 282 287 294 303 303 295 301 314 316 315 317 314 309 308 308 308 306 305 304 303
196 199 202 204 206 205 202 202 202 202 202 206 211 215 215 214 212 208 207 208 210 209 208 209 213 216 223 231 233 233 236 236 235 236 236 235 235 235 239 249 254 257 260 261 259 258 257 261 264 261 261 267 269 274 281 287 295 296 288 284 287 285 276 273 276 280 289 293 296 302 308 314 317 318 318 318 313 309 308 311 312 312 311 310 309
196 199 201 201 203 205 205 204 203 200 201 206 211 214 214 214 212 209 206 207 209 209 207 208 211 215 224 231 231 233 238 239 236 237 237 233 229 232 239 244 245 247 252 252 252 254 256 261 265 267 272 278 281 284 289 292 299 303 299 297 297 289 277 275 278 282 289 289 291 306 315 314 313 313 315 317 311 309 311 311 310 311 310 308 306